Retour au catalogue

STARLINK-6358

ActifCommunicationsVLEO
NORAD 57377·PAYLOAD·🇺🇸 United States

Lancé Jul 16, 2023 depuis Cape Canaveral Space Force Station

Loading…

Prochains Passages (prochaines 24 heures)

TLE

FraisSource: CelesTrak SupGP

Époque: Sep 15, 2026, 02:28 UTC

1 57377C 23099BB  26258.10326389 -.00022284  00000+0 -80717-3 0  2580
2 57377  43.0000 255.6759 0000786 252.3370 134.3148 15.27587478    19

Suivez STARLINK-6358 en temps réel avec AllMySat

Download on the App Store